Temperature
17 17 16 16 16 16 16 16 16 16 16 16 16 16 16 16 16 16 17 17 17 17 17 17 17 17 17 17 17 17 17 17 17 16 16 16 16 16 16 16 16 16 16
16 16 16 16 16 15 15 15 15 15 16 16 16 16 16 16 16 16 16 16 17 17 17 17 17 17 17 17 17 17 17 17 17 16 16 16 16 16 16 16 16 16 16
16 16 15 15 15 15 15 15 15 15 15 15 15 15 15 15 16 16 16 16 16 16 16 17 17 16 16 16 16 16 16 16 16 16 16 16 16 16 16 16 16 16 16
15 15 15 15 15 14 14 14 15 15 15 15 15 15 15 15 15 16 16 16 16 16 16 16 16 16 16 16 16 16 16 16 16 16 16 16 16 16 16 16 16 16 16
15 14 14 14 14 14 14 14 14 14 14 14 15 15 15 15 15 15 16 16 16 16 16 16 16 16 16 16 16 16 16 16 16 16 16 16 16 16 16 16 16 16 16
14 14 14 14 14 14 14 14 14 14 14 14 14 14 14 15 15 15 15 15 16 16 16 16 16 16 16 16 16 16 16 16 16 16 16 16 16 16 16 16 16 16 16
14 14 14 14 13 13 13 13 13 13 14 14 14 14 14 14 14 15 15 15 15 15 15 15 15 15 15 15 15 15 15 16 16 16 16 16 16 16 16 16 16 16 16
14 14 13 13 13 13 13 13 13 13 13 13 14 14 14 14 14 14 14 15 15 15 15 15 15 15 15 15 15 15 15 15 15 16 16 16 16 16 16 16 16 16 16
14 13 13 13 13 13 13 13 13 13 13 13 13 13 14 14 14 14 14 14 14 14 14 15 15 15 15 15 15 15 15 15 15 15 15 15 15 16 16 16 16 16 16
14 13 13 13 13 13 13 13 13 13 13 12 13 13 13 13 13 13 13 14 14 14 14 14 14 14 15 15 15 15 15 15 15 15 15 15 15 15 15 16 16 16 16
14 13 13 13 12 12 12 12 12 12 12 12 12 12 12 12 12 12 13 13 13 13 13 14 14 14 14 14 14 15 15 15 15 15 15 15 15 15 15 15 15 16 16
14 13 13 13 12 12 12 12 12 12 12 12 12 12 12 12 12 12 12 12 13 13 13 13 13 13 14 14 14 14 14 14 14 14 14 14 15 15 15 15 15 15 15
14 14 13 13 13 12 12 12 12 12 12 11 11 11 11 11 11 11 11 11 11 12 12 12 13 13 13 13 13 13 14 14 14 14 14 14 14 14 14 15 15 15 15
14 14 13 13 13 13 12 12 12 12 12 11 11 11 11 11 11 11 10 10 11 11 12 12 12 12 12 12 13 13 13 13 13 14 14 14 14 14 14 14 14 15 15
14 14 14 13 13 13 13 12 12 12 12 11 11 11 11 11 11 10 10 10 10 10 10 11 12 12 12 12 12 12 13 13 13 13 13 13 14 14 14 14 14 14 14
15 14 14 14 13 13 13 13 12 12 12 12 11 11 11 11 11 10 10 10 10 10 10 10 11 11 11 11 11 12 12 12 12 12 13 13 13 13 13 14 14 14 14
15 15 14 14 14 13 13 13 13 12 12 12 11 11 11 11 11 10 10 10 10 10 10 10 10 11 11 11 11 11 11 12 12 12 12 12 13 13 13 13 13 13 14
16 15 15 14 14 14 13 13 13 13 12 12 12 11 11 11 11 11 10 10 10 10 10 10 10 10 10 11 11 11 11 11 11 12 12 12 12 12 13 13 13 13 13
16 16 15 15 15 14 14 13 13 13 13 12 12 12 11 11 11 11 10 10 10 10 10 10 10 10 10 10 10 10 11 11 11 11 11 11 12 12 12 12 12 13 13
16 16 16 15 15 15 14 14 13 13 13 13 12 12 12 11 11 11 10 10 10 10 10 10 10 10 10 10 10 10 10 10 10 11 11 11 11 11 11 12 12 12 13
17 16 16 16 15 15 15 14 14 13 13 13 12 12 12 11 11 11 11 10 10 10 10 10 10 9 10 10 10 9 9 10 10 10 10 11 11 11 11 11 12 12 12
17 17 16 16 16 16 15 15 14 14 13 13 13 12 12 12 11 11 11 10 10 10 10 10 9 9 10 10 9 9 9 9 9 10 10 10 10 11 11 11 11 12 12
17 17 16 16 16 16 15 15 14 14 14 13 13 13 12 12 11 11 11 11 10 10 10 9 9 9 9 9 9 9 9 9 9 9 9 9 10 10 11 11 11 11 12
17 17 16 16 16 16 15 15 14 14 14 14 13 13 12 12 12 11 11 11 11 10 10 9 9 9 9 9 9 9 8 8 9 9 9 9 9 10 10 11 11 11 11
17 17 16 16 16 16 15 15 14 13 13 14 13 13 12 12 12 11 11 11 11 11 10 10 9 9 9 9 9 8 8 8 8 9 9 8 9 9 10 10 11 11 11
16 16 16 16 15 15 15 14 14 13 13 13 13 13 13 12 12 11 11 11 11 11 10 10 9 9 9 9 9 8 8 8 8 8 9 8 8 8 8 9 10 10 10
Wind_Speed
4 4 4 5 4 4 3 3 3 3 3 3 2 2 1 1 1 2 4 6 8 10 14 15 17 17 18 17 18 18 17 16 16 16 15 15 15 14 13 13 13 13 13
5 4 4 5 5 4 4 4 3 3 3 2 2 2 2 2 2 3 4 5 7 8 12 15 16 17 18 18 18 18 18 18 18 17 17 16 16 15 15 14 14 13 13
7 6 4 4 4 5 6 6 5 4 3 3 3 3 2 3 3 4 4 5 5 7 10 13 16 17 17 17 17 18 19 19 19 19 19 18 18 17 17 16 15 15 15
8 7 4 4 5 6 6 4 3 3 3 3 2 2 2 3 4 4 3 4 5 6 8 11 13 16 16 16 17 18 19 20 20 21 21 20 20 19 19 18 17 17 16
7 7 5 4 6 6 4 3 3 2 3 3 2 2 3 3 3 3 3 2 3 5 6 9 11 14 15 16 17 17 18 19 20 21 21 21 21 21 21 20 19 19 18
7 7 5 5 5 4 4 3 4 4 2 2 2 3 3 4 4 4 5 5 4 3 2 4 6 10 13 15 17 17 18 19 20 21 22 23 22 22 22 22 21 21 20
6 6 5 4 4 4 3 3 2 4 5 3 2 3 3 4 5 6 5 6 7 7 6 4 2 4 6 10 14 17 18 19 19 20 21 23 24 24 24 24 23 23 22
6 5 5 3 3 3 4 4 3 2 3 4 2 2 3 4 4 5 5 6 7 7 7 7 5 3 3 4 7 12 16 18 18 19 20 21 22 24 25 25 25 25 24
5 5 6 4 3 3 3 3 3 3 2 3 3 2 2 0 2 3 4 6 6 6 6 7 7 6 4 2 4 7 11 14 16 18 20 20 21 23 25 26 26 26 26
5 6 6 5 4 2 3 2 2 2 2 2 2 3 2 1 1 2 3 4 5 6 7 6 7 7 7 4 3 4 6 8 11 14 17 20 21 22 23 25 26 27 28
4 5 7 6 4 3 3 2 2 2 2 2 1 1 2 2 2 1 2 4 4 4 5 4 5 6 8 7 6 5 5 5 6 8 11 15 18 20 22 24 25 27 27
2 4 6 6 5 4 3 3 2 2 2 2 1 1 1 1 1 1 1 2 3 3 4 3 3 5 7 7 8 9 7 6 5 6 8 10 13 16 20 22 25 26 26
3 4 5 5 4 5 5 4 3 2 3 2 2 2 2 2 2 2 1 1 2 2 3 2 3 4 6 7 8 10 9 8 6 6 6 7 8 10 14 17 20 23 25
5 4 5 6 6 6 5 4 3 3 3 3 3 3 2 2 3 3 2 2 1 2 2 3 2 3 5 8 9 10 8 9 8 7 7 7 7 8 10 13 16 19 21
4 5 5 5 6 6 5 4 3 4 3 4 4 4 3 3 3 4 3 3 2 2 3 3 2 3 5 7 9 8 8 9 9 9 8 8 9 9 10 11 12 15 18
5 6 6 6 6 5 5 5 4 4 4 4 3 4 4 3 3 4 4 4 4 4 4 3 4 4 6 8 8 7 8 10 10 10 10 10 11 11 12 12 13 14 17
7 7 7 7 7 6 6 5 6 5 6 5 5 5 6 5 4 4 4 4 5 5 6 6 4 4 4 6 7 8 8 8 8 10 11 11 12 13 13 14 15 15 16
8 8 7 7 7 7 7 7 7 7 7 7 7 6 7 6 6 5 5 6 6 7 6 8 5 4 5 5 6 6 7 7 7 10 12 12 12 12 13 14 15 16 16
9 8 8 9 9 8 8 8 8 8 8 8 8 8 9 7 8 6 7 7 6 6 7 7 7 4 4 4 4 5 5 5 7 9 10 10 11 11 12 12 13 15 17
10 10 10 10 10 9 9 9 9 9 9 9 9 9 9 9 10 9 8 8 7 7 7 7 7 6 6 5 4 5 5 4 5 6 8 9 8 9 10 11 13 14 16
11 10 10 10 10 9 9 10 10 10 10 10 10 10 10 12 13 11 8 8 8 7 7 7 8 6 6 5 5 4 5 6 5 4 4 5 5 6 8 10 12 14 15
10 10 11 11 11 10 13 15 12 10 10 11 11 11 10 12 14 15 15 14 12 10 10 8 8 9 10 8 7 6 5 4 5 3 3 4 4 7 8 10 13 15 16
10 11 11 11 13 14 16 16 16 12 11 11 12 11 10 11 12 11 12 14 14 16 15 12 12 12 11 9 7 7 7 7 7 5 3 7 6 8 9 12 17 18 18
9 11 12 12 12 14 16 17 17 14 12 13 13 13 13 13 12 12 12 12 12 12 13 13 13 13 13 11 10 9 8 7 8 7 6 6 7 8 9 11 16 19 20
10 10 9 12 13 14 16 18 16 10 11 14 14 14 14 14 15 15 13 13 13 12 13 16 17 16 16 15 10 6 6 6 8 7 6 6 6 7 7 9 12 15 17
9 9 10 11 12 14 15 17 16 10 12 13 12 13 16 17 17 16 14 13 14 14 11 9 10 12 12 12 13 11 10 10 9 7 6 6 5 4 5 4 4 5 7
Wind_Direction
78 62 52 49 51 64 70 65 65 62 47 36 31 23 344 305 268 233 240 241 235 227 217 211 208 205 202 200 198 196 196 196 194 191 189 187 185 183 183 182 180 177 175
94 80 62 53 51 64 76 81 75 68 51 40 24 9 339 325 309 270 254 253 252 240 224 217 214 211 209 205 206 205 203 202 200 198 196 194 192 191 191 189 187 185 183
97 90 75 58 49 68 82 79 66 58 49 37 18 2 355 334 318 293 268 257 261 252 232 222 219 217 215 212 211 213 211 209 206 203 201 200 199 198 198 196 194 193 192
103 92 77 59 58 72 75 75 59 54 36 24 5 353 353 337 322 306 288 267 259 256 246 233 224 221 218 218 218 218 217 216 213 210 206 204 203 204 204 203 201 200 199
106 95 81 67 72 71 61 70 58 58 35 9 353 9 6 358 343 350 352 323 276 258 251 245 236 229 224 224 225 225 224 222 220 216 213 210 209 207 208 209 207 205 205
113 102 88 74 75 74 60 62 68 51 39 357 1 14 12 16 23 31 29 28 22 360 295 262 249 239 233 230 228 227 230 229 226 223 219 217 214 212 211 211 211 210 209
128 113 101 83 78 78 71 72 77 53 30 5 36 11 0 17 35 36 33 36 33 29 32 15 296 246 242 239 232 228 230 232 232 230 227 222 219 216 214 214 214 213 212
150 133 122 112 100 91 73 61 70 75 32 25 58 65 13 359 5 17 24 33 27 28 30 26 22 356 273 255 250 239 234 234 234 234 233 230 225 222 218 216 216 216 215
174 157 148 137 124 111 102 83 82 94 74 32 41 97 111 265 322 339 11 21 16 24 18 18 25 17 6 316 278 260 245 237 237 236 234 234 231 227 223 221 219 218 217
187 179 168 159 149 136 131 116 99 97 106 64 35 45 81 140 88 339 337 355 6 19 11 13 15 16 17 11 342 304 275 257 247 242 237 235 234 233 230 227 224 222 221
203 197 184 174 167 162 158 140 123 114 114 124 102 74 71 63 75 115 320 333 345 346 352 357 5 10 11 13 7 349 319 284 268 257 250 243 239 236 234 234 232 229 226
218 207 191 185 183 179 179 175 165 152 151 145 148 150 149 143 153 146 241 305 317 315 327 338 358 3 4 5 3 356 345 325 297 280 269 258 249 242 240 239 237 235 232
207 209 191 189 193 198 193 184 183 190 181 179 184 188 194 203 182 172 189 257 291 302 315 317 326 346 359 357 352 352 348 342 325 301 289 277 268 258 250 245 241 239 237
206 200 195 200 204 202 198 189 195 206 198 205 210 201 208 219 201 194 192 194 285 302 297 289 306 311 340 340 337 342 339 337 331 315 297 289 282 276 270 258 249 244 241
206 200 198 202 208 207 203 192 209 220 210 220 226 219 220 227 215 216 210 200 206 269 287 273 281 296 319 320 325 327 322 322 321 313 298 288 283 278 276 271 263 254 248
203 196 201 207 212 213 208 202 218 225 221 231 227 227 233 234 225 216 214 214 214 224 255 259 256 278 297 303 310 315 310 310 308 304 297 289 283 278 276 269 265 259 254
200 203 206 209 214 218 213 210 224 227 230 241 238 232 241 235 233 228 216 215 218 216 248 270 255 268 277 285 299 305 302 299 299 299 295 290 285 280 275 271 265 260 256
207 209 210 213 220 223 218 217 229 230 229 240 244 239 246 242 236 235 226 226 227 221 235 268 273 266 261 272 280 289 294 295 292 294 293 289 284 280 277 273 268 262 258
212 212 211 217 223 224 224 225 228 234 235 238 241 240 246 241 244 240 233 236 238 235 228 249 269 262 265 270 279 282 283 286 292 291 291 288 285 281 278 275 272 266 259
213 215 216 221 225 227 228 230 231 237 242 244 242 241 243 239 241 243 241 239 239 240 237 245 262 266 264 265 259 270 282 278 287 293 288 285 285 289 284 280 275 269 262
219 218 220 226 228 229 232 230 232 237 242 248 249 245 244 242 240 238 238 239 235 240 243 248 259 265 265 261 257 253 268 281 281 266 276 276 282 287 290 287 280 272 267
221 220 223 227 230 234 231 226 225 235 238 243 250 251 249 251 249 245 242 239 230 235 243 247 256 258 262 260 257 251 256 268 279 247 245 275 276 280 280 277 274 273 270
222 224 229 230 235 237 232 232 230 231 237 241 244 249 253 250 241 247 250 250 245 237 232 238 250 254 258 254 249 253 244 242 252 254 248 276 269 273 274 273 270 270 269
222 229 232 232 237 243 235 235 235 236 240 242 241 242 246 251 246 239 247 252 252 249 241 239 242 249 250 250 242 249 257 257 258 256 232 260 268 270 276 274 270 266 265
229 229 231 231 235 244 237 234 233 238 242 246 244 241 240 247 245 233 238 248 256 259 250 240 237 242 245 244 237 239 240 244 263 263 215 230 263 272 275 273 270 265 262
239 240 242 239 238 246 243 234 228 234 243 249 248 243 236 237 241 230 231 238 248 255 254 250 242 244 247 249 236 229 236 245 257 265 231 214 246 257 278 262 268 275 274
Height
1556 1556 1556 1556 1557 1557 1558 1558 1558 1559 1559 1560 1560 1561 1562 1563 1564 1564 1566 1567 1568 1570 1571 1573 1575 1576 1578 1580 1583 1584 1586 1588 1590 1592 1593 1595 1597 1598 1600 1601 1602 1604 1605
1555 1555 1555 1555 1555 1556 1557 1557 1557 1558 1558 1558 1559 1559 1560 1561 1561 1562 1563 1564 1566 1567 1569 1571 1572 1574 1576 1578 1581 1583 1585 1587 1589 1591 1593 1594 1596 1598 1599 1601 1602 1603 1605
1554 1554 1554 1554 1554 1555 1556 1556 1556 1557 1557 1557 1557 1558 1558 1558 1559 1560 1561 1562 1563 1565 1566 1568 1570 1572 1574 1576 1578 1580 1583 1585 1587 1589 1591 1593 1595 1596 1598 1600 1601 1603 1604
1553 1553 1553 1553 1554 1554 1555 1555 1555 1556 1556 1556 1556 1556 1556 1557 1557 1557 1558 1559 1561 1562 1564 1565 1567 1569 1571 1573 1575 1577 1579 1582 1584 1587 1589 1591 1593 1595 1597 1599 1600 1602 1604
1553 1553 1553 1552 1553 1553 1554 1554 1554 1554 1555 1555 1555 1555 1555 1555 1555 1555 1556 1557 1558 1559 1561 1562 1564 1566 1568 1570 1572 1574 1576 1578 1581 1584 1586 1588 1590 1593 1595 1597 1598 1600 1602
1553 1552 1552 1552 1552 1552 1553 1553 1553 1553 1553 1553 1554 1554 1554 1554 1554 1554 1554 1555 1555 1557 1558 1559 1561 1563 1564 1566 1568 1570 1572 1574 1577 1580 1582 1585 1587 1589 1592 1594 1596 1598 1600
1553 1552 1552 1552 1551 1552 1552 1552 1552 1552 1552 1552 1552 1553 1553 1553 1553 1553 1553 1553 1554 1555 1556 1557 1558 1560 1561 1563 1564 1566 1568 1570 1572 1575 1578 1580 1583 1586 1588 1591 1593 1595 1597
1553 1553 1552 1552 1551 1551 1551 1551 1551 1551 1551 1551 1551 1552 1552 1554 1553 1553 1553 1553 1553 1554 1554 1555 1556 1557 1558 1559 1561 1562 1564 1565 1568 1570 1573 1576 1578 1581 1584 1586 1589 1591 1593
1553 1553 1552 1552 1551 1551 1551 1551 1551 1550 1550 1550 1550 1551 1551 1552 1552 1553 1553 1553 1553 1553 1553 1554 1554 1555 1555 1556 1557 1559 1560 1561 1563 1565 1567 1570 1573 1575 1578 1581 1584 1586 1589
1552 1552 1552 1552 1551 1551 1550 1550 1550 1550 1550 1550 1550 1550 1551 1551 1552 1552 1552 1552 1552 1552 1552 1552 1553 1553 1553 1554 1555 1556 1557 1558 1559 1560 1562 1564 1567 1569 1572 1575 1578 1581 1584
1551 1551 1551 1551 1551 1551 1550 1550 1550 1549 1549 1549 1549 1549 1549 1550 1550 1551 1550 1551 1551 1551 1551 1551 1551 1551 1551 1552 1552 1553 1553 1554 1555 1556 1557 1559 1561 1563 1566 1569 1572 1575 1578
1549 1550 1550 1550 1550 1550 1550 1549 1549 1549 1549 1548 1548 1549 1549 1549 1549 1549 1549 1548 1548 1549 1549 1549 1549 1549 1549 1549 1549 1550 1550 1551 1551 1552 1553 1554 1556 1558 1560 1562 1565 1568 1571
1547 1548 1548 1549 1549 1549 1549 1548 1548 1548 1548 1548 1548 1547 1548 1547 1547 1547 1547 1546 1546 1546 1546 1546 1546 1546 1546 1546 1546 1546 1547 1547 1547 1548 1549 1550 1551 1552 1554 1556 1558 1560 1563
1545 1546 1546 1547 1547 1547 1547 1547 1547 1547 1546 1546 1546 1546 1546 1546 1546 1545 1545 1545 1544 1543 1543 1543 1543 1543 1543 1543 1543 1543 1543 1543 1543 1544 1545 1545 1546 1547 1548 1550 1551 1553 1556
1543 1544 1544 1545 1545 1545 1545 1545 1545 1545 1545 1544 1544 1544 1544 1544 1543 1543 1543 1543 1543 1541 1539 1539 1540 1540 1540 1539 1539 1539 1539 1539 1539 1540 1540 1541 1541 1542 1543 1544 1545 1546 1548
1541 1541 1542 1542 1542 1543 1543 1543 1543 1542 1542 1542 1542 1542 1541 1541 1541 1541 1540 1540 1539 1539 1537 1536 1536 1536 1536 1535 1535 1534 1534 1534 1534 1535 1535 1536 1536 1536 1537 1538 1538 1540 1541
1538 1538 1539 1539 1540 1540 1540 1540 1540 1539 1539 1539 1539 1538 1538 1538 1538 1538 1537 1537 1536 1535 1533 1532 1532 1532 1531 1531 1530 1530 1529 1529 1529 1529 1530 1530 1530 1530 1531 1532 1532 1533 1534
1535 1536 1536 1536 1537 1537 1537 1537 1536 1536 1536 1535 1535 1535 1534 1534 1534 1534 1533 1533 1532 1531 1530 1528 1527 1527 1527 1526 1525 1525 1524 1524 1524 1524 1524 1524 1524 1524 1524 1525 1525 1526 1527
1532 1532 1533 1533 1533 1533 1533 1533 1533 1533 1532 1531 1531 1531 1530 1530 1529 1529 1529 1528 1527 1527 1525 1524 1522 1522 1521 1521 1520 1520 1519 1518 1518 1518 1518 1518 1518 1518 1518 1518 1518 1519 1520
1528 1529 1529 1529 1530 1530 1529 1529 1529 1528 1528 1527 1527 1526 1526 1525 1525 1524 1524 1523 1522 1521 1520 1519 1517 1516 1516 1516 1515 1514 1513 1513 1512 1512 1512 1512 1512 1511 1512 1512 1512 1512 1513
1524 1525 1525 1525 1525 1525 1525 1525 1524 1523 1523 1522 1522 1521 1520 1520 1519 1519 1518 1517 1517 1515 1515 1513 1512 1511 1510 1510 1510 1509 1508 1507 1506 1506 1506 1506 1505 1505 1505 1505 1505 1505 1506
1520 1520 1520 1520 1520 1520 1520 1520 1519 1518 1517 1516 1516 1515 1515 1514 1513 1513 1512 1511 1510 1509 1508 1508 1506 1505 1505 1505 1505 1504 1502 1501 1500 1501 1499 1499 1499 1498 1498 1498 1498 1498 1498
1515 1514 1515 1515 1514 1514 1514 1514 1513 1512 1511 1510 1509 1509 1508 1507 1507 1506 1505 1504 1504 1503 1502 1501 1500 1499 1499 1499 1499 1498 1497 1495 1494 1494 1493 1491 1492 1491 1491 1491 1491 1491 1491
1509 1508 1508 1508 1508 1508 1508 1508 1507 1506 1504 1503 1502 1501 1501 1500 1500 1499 1498 1497 1496 1496 1495 1495 1493 1493 1493 1493 1492 1492 1490 1489 1487 1488 1487 1484 1484 1484 1484 1483 1483 1483 1483
1501 1501 1501 1501 1500 1500 1500 1500 1500 1498 1496 1495 1494 1494 1493 1492 1492 1492 1491 1489 1488 1488 1489 1488 1487 1487 1486 1486 1486 1485 1483 1482 1480 1480 1480 1479 1477 1476 1475 1474 1475 1475 1475
1493 1493 1493 1493 1492 1491 1492 1491 1491 1489 1487 1486 1485 1485 1484 1484 1484 1484 1483 1482 1480 1481 1481 1481 1480 1480 1479 1479 1479 1478 1477 1476 1474 1472 1472 1472 1471 1470 1467 1467 1467 1468 1467